{"data":{"norad_id":61205,"epoch":"2026-05-25T01:08:24.101088Z","epoch_age_seconds":64965,"freshness":"FRESH","line1":"1 61205U 24171F   26145.04750117  .00004381  00000+0  41011-4 0  9998","line2":"2 61205  53.1589 159.6928 0001093  64.9354 295.1778 15.69701025 96393","mean_motion":15.69701025,"eccentricity":0.0001093,"inclination_deg":53.1589,"raan_deg":159.6928,"arg_perigee_deg":64.9354,"mean_anomaly_deg":295.1778,"bstar":4.1011e-5,"rev_number":9639,"period_min":91.737214734889,"perigee_km":359.01598224162,"apogee_km":360.48888487179,"semimajor_km":6737.8894335567,"source":"CELESTRAK","updated_at":"2026-05-25T13:38:19.359420Z"}}